Station: Macquarie Island  

  Atmospheric Gas Attenuation - ITU Rec 676-11   ----------------- dB/100km -----------------
Date Time Temp RH % AH g/m3 Dew Point Wind Direction Speed kph Gust kph Barometer mB Rainfall Since 9am 24GHz 47GHz 76GHz 122GHz 134GHz 241GHz
07/09 00:40 3.9 89 5.63 2.3 43 48 1000.2 0.2 13.6 23.3 31.7 83.0 68.7 233.3
07/09 00:30 3.9 88 5.56 2.1 44 50 1000.3 0.2 13.5 23.2 31.5 82.3 67.8 230.1
07/09 00:20 3.9 87 5.5 1.9 43 50 1000.4 0.2 13.3 23.1 31.2 81.6 67.0 227.3
07/09 00:10 4 87 5.54 2 43 48 1000.5 0.2 13.4 23.2 31.3 82.0 67.5 228.9
07/09 00:00 4 86 5.47 1.9 43 48 1000.6 0.2 13.3 23.0 31.1 81.2 66.5 225.7
06/09 23:50 4 86 5.47 1.9 43 48 1000.7 0.2 13.3 23.1 31.1 81.3 66.5 225.7
06/09 23:40 4.1 87 5.57 2.1 41 46 1000.9 0.2 13.5 23.2 31.4 82.2 67.8 230.1
06/09 23:30 3.9 87 5.5 1.9 41 46 1000.9 0.2 13.3 23.1 31.2 81.7 67.0 227.4
06/09 23:20 3.9 86 5.44 1.8 39 46 1001 0.2 13.2 23.0 31.0 81.1 66.2 224.6
06/09 23:10 3.9 86 5.44 1.8 39 44 1001.3 0.2 13.2 23.1 31.0 81.1 66.3 224.7
06/09 23:00 3.8 86 5.4 1.7 37 43 1001.5 0.2 13.1 23.0 30.9 80.8 65.8 223.2
06/09 22:50 3.6 86 5.33 1.5 37 41 1001.6 0.2 13.0 23.0 30.7 80.3 65.1 220.5
06/09 22:40 3.6 85 5.27 1.3 39 44 1001.8 0.2 12.8 22.9 30.5 79.6 64.3 217.8
06/09 22:30 3.6 83 5.14 1 43 48 1002 0.2 12.6 22.7 30.0 78.3 62.6 211.8
06/09 22:20 3.8 83 5.21 1.2 37 43 1002.1 0.2 12.7 22.7 30.2 78.8 63.4 214.5
06/09 22:10 3.8 83 5.21 1.2 35 41 1002.3 0.2 12.7 22.7 30.2 78.8 63.4 214.5
06/09 22:00 3.9 84 5.31 1.4 32 39 1002.5 0.2 12.9 22.9 30.5 79.8 64.6 218.9
06/09 21:50 3.9 83 5.25 1.3 30 35 1002.7 0.2 12.8 22.8 30.3 79.2 63.8 216.2
06/09 21:40 3.8 82 5.15 1 32 35 1002.8 0.2 12.6 22.7 30.0 78.2 62.6 211.9
06/09 21:30 3.7 81 5.05 0.8 32 35 1002.8 0.2 12.4 22.5 29.6 77.3 61.4 207.6
06/09 21:20 3.6 83 5.14 1 33 37 1003 0.2 12.6 22.7 30.0 78.4 62.7 212.0
06/09 21:10 3.5 83 5.11 0.9 32 35 1003.1 0.2 12.5 22.7 29.9 78.1 62.4 210.9
06/09 21:00 3.8 78 4.9 0.3 26 32 1003.3 0.2 12.0 22.3 29.0 75.7 59.4 200.6
06/09 20:50 3.5 78 4.8 0 30 33 1003.3 0.2 11.8 22.2 28.7 74.9 58.3 196.8
06/09 20:40 3.5 79 4.86 0.2 30 35 1003.4 0.2 12.0 22.3 29.0 75.5 59.1 199.5
06/09 20:30 3.6 78 4.83 0.1 32 35 1003.5 0.2 11.9 22.2 28.8 75.1 58.7 197.9
06/09 20:20 3.6 74 4.58 -0.6 33 39 1003.6 0.2 11.4 21.8 27.8 72.5 55.5 186.7
06/09 20:10 3.9 73 4.61 -0.5 32 39 1003.8 0.2 11.4 21.8 27.9 72.6 55.6 187.3
06/09 20:00 3.6 74 4.58 -0.6 33 37 1003.8 0.2 11.4 21.9 27.8 72.6 55.5 186.7
06/09 19:50 3.6 78 4.83 0.1 32 37 1003.8 0.2 11.9 22.2 28.8 75.2 58.7 198.0
06/09 19:40 3.7 79 4.93 0.4 33 39 1004 0.2 12.1 22.4 29.2 76.1 59.9 202.3
06/09 19:30 3.5 80 4.92 0.4 30 35 1004.1 0.2 12.1 22.4 29.2 76.2 59.9 202.4
06/09 19:20 3.4 76 4.65 -0.4 28 35 1004.1 0.2 11.5 22.0 28.2 73.5 56.5 190.4
06/09 19:10 3.5 74 4.55 -0.7 30 41 1004.1 0.2 11.3 21.8 27.8 72.4 55.2 185.6
06/09 19:00 3.5 73 4.49 -0.9 30 41 1004.2 0.2 11.2 21.8 27.5 71.8 54.4 183.0
06/09 18:50 3.5 73 4.49 -0.9 24 30 1004.3 0.2 11.2 21.8 27.5 71.8 54.4 183.0
06/09 18:40 3.1 73 4.37 -1.3 20 24 1004.4 0.2 10.9 21.7 27.2 70.9 53.2 178.5
06/09 18:30 3.2 74 4.46 -1 22 28 1004.5 0.2 11.1 21.8 27.5 71.7 54.2 182.3
06/09 18:20 3.1 72 4.31 -1.4 26 30 1004.5 0.2 10.8 21.6 27.0 70.3 52.4 175.8
06/09 18:10 3.3 72 4.37 -1.3 24 30 1004.4 0.2 10.9 21.6 27.2 70.7 53.0 178.1
06/09 18:00 3.2 73 4.4 -1.2 20 26 1004.4 0.2 11.0 21.7 27.3 71.1 53.5 179.6
06/09 17:50 3.1 71 4.25 -1.6 22 30 1004.4 0.2 10.7 21.5 26.8 69.7 51.6 173.2
06/09 17:40 3.1 72 4.31 -1.4 20 26 1004.4 0.2 10.8 21.6 27.0 70.3 52.4 175.8
06/09 17:30 3.1 73 4.37 -1.3 26 32 1004.3 0.2 10.9 21.7 27.2 70.9 53.2 178.5
06/09 17:20 3 76 4.52 -0.8 24 30 1004.3 0.2 11.3 21.9 27.8 72.5 55.1 185.5
06/09 17:10 2.9 76 4.49 -0.9 28 37 1004.5 0.2 11.2 21.9 27.8 72.3 54.8 184.4
06/09 17:00 3.1 74 4.43 -1.1 28 33 1004.4 0.2 11.1 21.8 27.5 71.5 53.9 181.2
06/09 16:50 3.1 72 4.31 -1.4 28 32 1004.4 0.2 10.8 21.6 27.0 70.3 52.4 175.8
06/09 16:40 3 70 4.17 -1.9 24 32 1004.5 0.2 10.5 21.4 26.5 68.9 50.7 169.8
06/09 16:30 2.7 75 4.37 -1.3 24 30 1004.5 0.2 10.9 21.8 27.4 71.3 53.4 179.4
06/09 16:20 2.9 79 4.67 -0.4 24 32 1004.4 0.2 11.6 22.2 28.5 74.2 57.2 192.5
06/09 16:10 2.7 81 4.72 -0.2 28 37 1004.5 0.2 11.7 22.3 28.7 74.9 58.0 195.3
06/09 16:00 2.7 82 4.78 -0.1 26 32 1004.5 0.2 11.8 22.4 29.0 75.6 58.7 198.1
06/09 15:50 2.5 81 4.66 -0.4 24 30 1004.6 0.2 11.6 22.3 28.6 74.5 57.3 193.1
06/09 15:40 2.6 80 4.63 -0.5 26 37 1004.7 0.2 11.5 22.2 28.4 74.1 56.9 191.5
06/09 15:30 3.1 80 4.79 0 22 26 1004.7 0 11.8 22.3 28.9 75.3 58.6 197.6
06/09 15:20 2.6 82 4.75 -0.2 26 32 1004.7 0 11.8 22.4 28.9 75.4 58.4 197.0
06/09 15:10 2.4 84 4.8 0 30 37 1004.7 0 11.9 22.5 29.2 76.1 59.2 199.8
06/09 15:00 3 79 4.7 -0.3 28 39 1004.5 0 11.6 22.2 28.5 74.4 57.5 193.7
06/09 14:50 3.1 73 4.37 -1.3 24 30 1004.5 0 10.9 21.7 27.2 70.9 53.2 178.5
06/09 14:40 3.2 73 4.4 -1.2 24 32 1004.5 0 11.0 21.7 27.3 71.1 53.5 179.7
06/09 14:30 4 73 4.65 -0.4 24 28 1004.4 0 11.5 21.9 28.0 73.0 56.1 189.0
06/09 14:20 4.1 73 4.68 -0.3 24 30 1004.4 0 11.6 21.9 28.1 73.2 56.4 190.1
06/09 14:10 4 72 4.58 -0.6 24 30 1004.4 0 11.3 21.8 27.7 72.2 55.2 185.9
06/09 14:00 3.6 75 4.65 -0.4 20 28 1004.4 0 11.5 22.0 28.1 73.3 56.4 189.9
06/09 13:50 3.1 75 4.49 -0.9 20 26 1004.2 0 11.2 21.9 27.7 72.1 54.7 183.9
06/09 13:40 3.4 73 4.46 -1 20 28 1004.3 0 11.1 21.7 27.5 71.5 54.1 181.9
06/09 13:30 3.7 74 4.62 -0.5 20 30 1004.3 0 11.4 21.9 28.0 72.9 55.9 188.3
06/09 13:20 3.6 75 4.65 -0.4 26 35 1004.4 0 11.5 22.0 28.1 73.3 56.4 189.9
06/09 13:10 3.7 69 4.3 -1.4 20 26 1004.3 0 10.8 21.4 26.8 69.6 51.9 174.1
06/09 13:00 4.4 69 4.51 -0.8 20 30 1004.3 0 11.2 21.6 27.3 71.2 54.0 181.8
06/09 12:50 4 67 4.26 -1.6 22 28 1004.2 0 10.7 21.3 26.5 69.0 51.2 171.6
06/09 12:40 3.9 71 4.49 -0.9 19 24 1004.2 0 11.2 21.7 27.4 71.4 54.1 182.0
06/09 12:30 3.2 72 4.34 -1.3 19 24 1004.3 0 10.9 21.6 27.1 70.5 52.7 176.9
06/09 12:20 3.3 72 4.37 -1.3 22 26 1004.3 0 10.9 21.6 27.2 70.7 53.0 178.1
06/09 12:10 3.3 69 4.19 -1.8 22 28 1004.3 0 10.5 21.3 26.5 68.9 50.7 170.0
06/09 12:00 3.6 72 4.46 -1 20 26 1004.2 0 11.1 21.7 27.4 71.4 54.0 181.4
06/09 11:50 3.7 72 4.49 -0.9 24 35 1004.3 0 11.2 21.7 27.5 71.6 54.3 182.5
06/09 11:40 4.2 66 4.26 -1.6 24 30 1004.4 0 10.7 21.2 26.4 68.8 51.0 171.2
06/09 11:30 4.4 64 4.18 -1.8 24 30 1004.2 0 10.5 21.1 26.1 67.8 49.9 167.3
06/09 11:20 4.3 62 4.02 -2.3 24 28 1004.2 0 10.1 20.8 25.5 66.3 48.0 160.5
06/09 11:10 4.5 63 4.14 -1.9 24 30 1004.1 0 10.4 21.0 25.9 67.3 49.3 165.3
06/09 11:00 4.5 61 4.01 -2.4 22 30 1004.1 0 10.1 20.8 25.4 66.0 47.7 159.7
06/09 10:50 4.7 66 4.4 -1.1 17 26 1004 0 10.9 21.3 26.8 69.7 52.4 176.2
06/09 10:40 4.5 69 4.54 -0.7 19 24 1003.9 0 11.2 21.6 27.4 71.3 54.3 182.8
06/09 10:30 4.1 69 4.42 -1.1 19 26 1003.9 0 11.0 21.5 27.1 70.5 53.1 178.4
06/09 10:20 3.4 69 4.22 -1.7 20 26 1003.8 0 10.6 21.3 26.5 69.0 51.0 171.1
06/09 10:10 3.1 66 3.95 -2.6 22 28 1003.7 0 10.0 21.0 25.6 66.6 47.8 159.8
06/09 10:00 3.4 66 4.03 -2.3 19 26 1003.6 0 10.2 21.0 25.8 67.1 48.6 162.7
06/09 09:50 3.5 66 4.06 -2.2 19 33 1003.4 0 10.2 21.1 25.9 67.3 48.9 163.8
06/09 09:40 3.4 67 4.1 -2.1 13 22 1003.3 0 10.3 21.1 26.1 67.8 49.5 165.7
06/09 09:30 2.3 71 4.03 -2.4 13 24 1003.4 0 10.2 21.3 26.1 68.0 49.3 164.9
06/09 09:20 1.6 73 3.95 -2.7 11 22 1003.4 0 10.1 21.3 26.1 67.8 48.7 162.8
06/09 09:10 1.6 75 4.06 -2.3 20 35 1003.4 0 10.3 21.5 26.5 68.9 50.1 167.7
06/09 09:00 2.2 72 4.06 -2.3 24 39 1003.3 0 10.3 21.4 26.3 68.4 49.8 166.4
06/09 08:50 2.5 63 3.63 -3.8 20 33 1003.1 0.2 9.3 20.6 24.6 63.8 44.2 146.8
06/09 08:40 2.7 63 3.67 -3.6 19 32 1002.9 0.2 9.4 20.6 24.6 64.0 44.5 148.2
06/09 08:30 2.4 64 3.66 -3.7 22 43 1002.8 0.2 9.4 20.7 24.7 64.1 44.6 148.3
06/09 08:20 2.4 67 3.83 -3.1 15 37 1002.6 0.2 9.8 20.9 25.3 65.8 46.7 155.7
06/09 08:10 2.5 63 3.63 -3.8 17 24 1002.5 0.2 9.3 20.6 24.5 63.7 44.1 146.8

Last Refresh: 07-Sep-2026 00:27:16

Bureau of Meteorology